EST,Max TemperatureF,Mean TemperatureF,Min TemperatureF,Max Dew PointF,MeanDew PointF,Min DewpointF,Max Humidity, Mean Humidity, Min Humidity, Max Sea Level PressureIn, Mean Sea Level PressureIn, Min Sea Level PressureIn, Max VisibilityMiles, Mean VisibilityMiles, Min VisibilityMiles, Max Wind SpeedMPH, Mean Wind SpeedMPH, Max Gust SpeedMPH,PrecipitationIn, CloudCover, Events, WindDirDegrees
2011-12-1,50,40,28,29,24,17,89,60,38,30.31,30.18,29.99,10,10,10,14,9,30,0.00,0,,310
2011-12-2,48,36,24,32,27,22,96,70,44,30.51,30.35,30.26,10,10,10,10,3,,0.00,2,,277
2011-12-3,43,34,24,28,24,22,92,76,45,30.69,30.62,30.53,10,10,10,6,1,,0.00,0,,84
2011-12-4,52,38,23,38,30,21,100,83,57,30.59,30.48,30.38,10,9,2,14,2,,0.00,2,,205
2011-12-5,60,45,30,48,38,30,100,88,57,30.39,30.32,30.16,10,8,0,10,1,,0.00,6,Fog,215
2011-12-6,59,54,48,57,55,46,100,98,93,30.14,29.96,29.90,10,4,0,13,3,,0.31,8,Fog-Rain,196
2011-12-7,48,44,39,48,41,37,100,96,87,29.92,29.76,29.53,10,6,2,14,7,,1.98,8,Rain,25
2011-12-8,42,36,28,34,27,23,93,73,53,30.31,30.00,29.52,10,10,10,20,10,36,0.20,3,Rain-Snow,289
2011-12-9,46,36,26,32,28,25,100,83,52,30.33,30.26,30.20,10,8,2,10,3,18,0.00,2,,219
2011-12-10,39,32,21,29,20,10,96,69,35,30.49,30.30,30.18,10,8,2,13,3,17,0.00,0,,305
2011-12-11,37,28,19,21,18,15,89,71,44,30.64,30.59,30.50,10,10,10,8,2,,0.00,0,,220
2011-12-12,41,30,18,22,19,15,89,72,43,30.60,30.52,30.42,10,10,9,9,3,,0.00,0,,204
2011-12-13,44,31,18,25,21,16,92,74,38,30.40,30.38,30.33,10,9,6,7,2,,0.00,0,,86
2011-12-14,48,36,25,34,30,23,92,78,52,30.42,30.36,30.28,10,10,6,6,2,,0.00,4,,197
2011-12-15,53,48,43,48,41,36,93,77,66,30.25,29.97,29.73,10,9,6,16,8,21,0.06,7,Rain,203
2011-12-16,50,41,32,46,29,21,90,65,45,30.13,30.04,29.71,10,10,6,18,10,26,0.00,3,,291
2011-12-17,39,33,26,27,21,13,82,62,44,30.17,30.12,30.08,10,10,10,13,6,20,0.00,4,,312
2011-12-18,28,22,16,13,11,7,84,67,41,30.32,30.25,30.16,10,10,10,10,4,,0.00,0,,22
2011-12-19,43,29,15,32,22,12,92,71,51,30.27,30.09,29.93,10,10,10,18,5,28,0.00,3,,213
2011-12-20,45,40,34,36,27,20,92,61,43,30.18,30.11,29.94,10,10,7,13,5,,0.01,4,Rain,303
2011-12-21,52,42,33,49,40,32,100,96,86,30.13,29.86,29.66,10,3,0,14,1,26,0.30,8,Fog-Rain,200
2011-12-22,53,47,41,45,40,37,96,74,57,30.09,29.99,29.77,10,10,5,12,7,21,0.05,6,Rain,265
2011-12-23,46,38,28,41,35,18,100,80,57,30.22,29.99,29.85,10,8,3,16,5,23,0.50,6,Rain,338
2011-12-24,35,27,19,20,17,14,85,66,46,30.47,30.37,30.22,10,10,10,9,5,,0.00,1,,347
2011-12-25,42,30,19,30,23,15,85,70,55,30.41,30.16,29.87,10,10,10,13,2,22,0.00,7,,219
2011-12-26,43,34,24,30,26,22,91,67,47,30.29,30.12,29.86,10,10,10,18,8,28,0.00,3,,299
2011-12-27,55,40,25,54,36,22,100,91,73,30.19,29.63,29.27,10,6,2,18,5,26,0.75,6,Rain,351
2011-12-28,46,36,25,36,25,8,76,62,49,29.84,29.55,29.35,10,10,10,24,13,37,0.00,5,,279
2011-12-29,30,24,19,22,14,7,75,60,45,30.04,29.97,29.84,10,10,10,14,8,22,0.00,3,,254
2011-12-30,46,37,28,30,26,22,92,76,52,30.04,29.99,29.94,10,10,10,5,1,,0.00,4,,350
2011-12-31,52,41,30,44,38,28,100,90,61,30.01,29.87,29.81,10,5,0,9,2,,0.02,6,Fog-Rain,231